AOJ74J LSZR-EDDN

Flight info

Callsign AOJ74J
Flight time 0h 32m
Altitude 28000
Route ALAGO Z1 SUDEN Z79 GUPIN N869 LETKU LETKU1V
Aircraft C750/M-SBDE3FGHRWXY/S

Departure

Time 2026-05-05 13:31
Airport Sankt Gallen Altenrhein Airport (LSZR)

Arrival

Time 2026-05-05 14:03
Airport Nuremberg Airport (EDDN)
Time Latitude Longitude Altitude Speed Heading
2026-05-05 13:11 47.48746 9.55402 1309 ft 0 kts
2026-05-05 13:27 47.48747 9.55402 1309 ft 1 kts
2026-05-05 13:27 47.48764 9.55384 1308 ft 2 kts 287°
2026-05-05 13:28 47.48745 9.55358 1309 ft 4 kts 193°
2026-05-05 13:28 47.48688 9.55344 1310 ft 11 kts 188°
2026-05-05 13:28 47.48624 9.55331 1313 ft 7 kts 188°
2026-05-05 13:28 47.48579 9.55363 1315 ft 12 kts 108°
2026-05-05 13:29 47.48563 9.55513 1315 ft 19 kts 99°
2026-05-05 13:29 47.48536 9.55774 1316 ft 29 kts 99°
2026-05-05 13:29 47.48505 9.56064 1311 ft 29 kts 98°
2026-05-05 13:29 47.48475 9.56361 1309 ft 29 kts 98°
2026-05-05 13:30 47.48445 9.56651 1307 ft 28 kts 99°
2026-05-05 13:30 47.48417 9.56922 1309 ft 23 kts 98°
2026-05-05 13:30 47.48420 9.57031 1312 ft 7 kts 82°
2026-05-05 13:30 47.48405 9.57034 1313 ft 6 kts 263°
2026-05-05 13:31 47.48406 9.57019 1312 ft 4 kts 279°
2026-05-05 13:31 47.48475 9.56365 1309 ft 121 kts 279°
2026-05-05 13:31 47.48660 9.54945 1677 ft 139 kts 286°
2026-05-05 13:31 47.48898 9.53650 2511 ft 131 kts 284°
2026-05-05 13:32 47.49276 9.52312 2995 ft 157 kts 302°
2026-05-05 13:32 47.50189 9.51177 3434 ft 185 kts 331°
2026-05-05 13:32 47.51461 9.50816 4292 ft 191 kts 359°
2026-05-05 13:32 47.52768 9.51161 5139 ft 195 kts
2026-05-05 13:33 47.54115 9.51560 5987 ft 201 kts
2026-05-05 13:33 47.55499 9.51964 6834 ft 205 kts
2026-05-05 13:33 47.56922 9.52384 7668 ft 211 kts
2026-05-05 13:33 47.58372 9.52817 8556 ft 215 kts 10°
2026-05-05 13:34 47.59855 9.53259 9380 ft 220 kts
2026-05-05 13:34 47.61413 9.53484 9917 ft 235 kts 359°
2026-05-05 13:34 47.63142 9.53536 10175 ft 261 kts 359°
2026-05-05 13:34 47.65050 9.53624 10344 ft 288 kts 360°
2026-05-05 13:35 47.67145 9.53718 10461 ft 315 kts 359°
2026-05-05 13:35 47.68619 9.53446 10563 ft 329 kts 341°
2026-05-05 13:35 47.70713 9.52158 11528 ft 323 kts 333°
2026-05-05 13:35 47.72783 9.50812 12416 ft 327 kts 333°
2026-05-05 13:36 47.74896 9.49487 13279 ft 331 kts 334°
2026-05-05 13:36 47.77034 9.48151 14090 ft 335 kts 334°
2026-05-05 13:36 47.79201 9.46804 14787 ft 341 kts 336°
2026-05-05 13:36 47.81585 9.46247 15374 ft 353 kts 357°
2026-05-05 13:37 47.84045 9.46275 16200 ft 356 kts 358°
2026-05-05 13:37 47.86544 9.46280 16905 ft 362 kts 358°
2026-05-05 13:37 47.89080 9.46254 17677 ft 367 kts 358°
2026-05-05 13:37 47.91653 9.46242 18415 ft 373 kts 358°
2026-05-05 13:38 47.94260 9.46245 19134 ft 377 kts 359°
2026-05-05 13:38 47.96897 9.46244 19872 ft 381 kts 359°
2026-05-05 13:38 47.99562 9.46233 20617 ft 386 kts 359°
2026-05-05 13:38 48.02261 9.46225 21349 ft 390 kts 359°
2026-05-05 13:39 48.04956 9.46220 22131 ft 395 kts 360°
2026-05-05 13:39 48.07720 9.46214 22908 ft 400 kts 360°
2026-05-05 13:39 48.10563 9.46210 23671 ft 405 kts
2026-05-05 13:39 48.13399 9.46216 24302 ft 411 kts
2026-05-05 13:40 48.16231 9.46197 24929 ft 415 kts 360°
2026-05-05 13:40 48.19138 9.46179 25544 ft 420 kts
2026-05-05 13:40 48.22070 9.46191 26126 ft 424 kts
2026-05-05 13:40 48.25040 9.46208 26708 ft 428 kts
2026-05-05 13:41 48.28035 9.46207 27357 ft 432 kts
2026-05-05 13:41 48.31041 9.46199 27968 ft 435 kts
2026-05-05 13:41 48.34137 9.46204 27985 ft 455 kts
2026-05-05 13:41 48.37369 9.46215 27912 ft 474 kts
2026-05-05 13:42 48.40733 9.46218 27849 ft 492 kts
2026-05-05 13:42 48.44212 9.46215 27848 ft 507 kts
2026-05-05 13:42 48.47782 9.46233 27842 ft 519 kts
2026-05-05 13:42 48.51408 9.46849 27828 ft 530 kts 12°
2026-05-05 13:43 48.54979 9.48314 27826 ft 534 kts 20°
2026-05-05 13:43 48.58376 9.50593 27834 ft 535 kts 30°
2026-05-05 13:43 48.61663 9.53254 27846 ft 536 kts 30°
2026-05-05 13:43 48.64958 9.55904 27846 ft 538 kts 30°
2026-05-05 13:44 48.68262 9.58552 27848 ft 538 kts 30°
2026-05-05 13:44 48.71563 9.61223 27841 ft 538 kts 30°
2026-05-05 13:44 48.74863 9.63911 27826 ft 540 kts 30°
2026-05-05 13:44 48.78176 9.66597 27826 ft 541 kts 30°
2026-05-05 13:45 48.81494 9.69281 27826 ft 541 kts 30°
2026-05-05 13:45 48.84754 9.71983 27815 ft 540 kts 32°
2026-05-05 13:45 48.87809 9.75265 27815 ft 538 kts 41°
2026-05-05 13:45 48.90526 9.79146 27821 ft 536 kts 49°
2026-05-05 13:46 48.92913 9.83484 27829 ft 534 kts 54°
2026-05-05 13:46 48.95248 9.87889 27835 ft 535 kts 53°
2026-05-05 13:46 48.97596 9.92277 27834 ft 535 kts 53°
2026-05-05 13:46 48.99944 9.96673 27837 ft 535 kts 53°
2026-05-05 13:47 49.02281 10.01090 27832 ft 535 kts 54°
2026-05-05 13:47 49.04608 10.05502 27834 ft 535 kts 54°
2026-05-05 13:47 49.06950 10.09921 27828 ft 535 kts 53°
2026-05-05 13:47 49.09286 10.14331 27827 ft 536 kts 53°
2026-05-05 13:48 49.11623 10.18770 27824 ft 536 kts 54°
2026-05-05 13:48 49.13962 10.23198 27808 ft 537 kts 53°
2026-05-05 13:48 49.16550 10.27340 27804 ft 541 kts 47°
2026-05-05 13:48 49.19213 10.31409 27804 ft 541 kts 47°
2026-05-05 13:49 49.21843 10.35530 27804 ft 541 kts 48°
2026-05-05 13:49 49.24411 10.39569 27411 ft 512 kts 48°
2026-05-05 13:49 49.26855 10.43299 26752 ft 482 kts 46°
2026-05-05 13:49 49.29204 10.46810 26080 ft 464 kts 46°
2026-05-05 13:50 49.31469 10.50268 25424 ft 457 kts 47°
2026-05-05 13:50 49.33691 10.53724 24790 ft 453 kts 47°
2026-05-05 13:50 49.35907 10.57140 24171 ft 450 kts 47°
2026-05-05 13:50 49.38077 10.60479 23579 ft 446 kts 47°
2026-05-05 13:51 49.40146 10.63971 22859 ft 439 kts 56°
2026-05-05 13:51 49.41631 10.67993 22117 ft 428 kts 69°
2026-05-05 13:51 49.42485 10.72311 21407 ft 419 kts 82°
2026-05-05 13:51 49.42706 10.76715 20724 ft 410 kts 95°
2026-05-05 13:52 49.42385 10.81013 20059 ft 403 kts 102°
2026-05-05 13:52 49.41965 10.85251 19410 ft 400 kts 102°
2026-05-05 13:52 49.41560 10.89461 18798 ft 397 kts 101°
2026-05-05 13:52 49.41163 10.93635 18196 ft 393 kts 101°
2026-05-05 13:53 49.40759 10.97769 17521 ft 390 kts 101°
2026-05-05 13:53 49.40355 11.01858 16835 ft 386 kts 101°
2026-05-05 13:53 49.39957 11.05913 16173 ft 382 kts 101°
2026-05-05 13:53 49.39563 11.09930 15519 ft 379 kts 101°
2026-05-05 13:54 49.39169 11.13908 14882 ft 375 kts 101°
2026-05-05 13:54 49.38777 11.17852 14257 ft 372 kts 101°
2026-05-05 13:54 49.38387 11.21763 13621 ft 369 kts 101°
2026-05-05 13:54 49.38000 11.25631 12930 ft 365 kts 101°
2026-05-05 13:55 49.37616 11.29453 12251 ft 361 kts 101°
2026-05-05 13:55 49.37245 11.33144 11401 ft 326 kts 101°
2026-05-05 13:55 49.36919 11.36406 10524 ft 299 kts 101°
2026-05-05 13:55 49.36599 11.39524 9678 ft 292 kts 101°
2026-05-05 13:56 49.36286 11.42571 8768 ft 287 kts 101°
2026-05-05 13:56 49.35984 11.45528 7887 ft 282 kts 100°
2026-05-05 13:56 49.35684 11.48481 7014 ft 278 kts 100°
2026-05-05 13:56 49.35712 11.51432 6065 ft 271 kts 75°
2026-05-05 13:57 49.36706 11.53791 5088 ft 271 kts 40°
2026-05-05 13:57 49.38365 11.54875 4890 ft 253 kts 13°
2026-05-05 13:57 49.40127 11.55379 5036 ft 258 kts
2026-05-05 13:57 49.41854 11.54719 5032 ft 261 kts 330°
2026-05-05 13:58 49.43240 11.52935 4872 ft 261 kts 315°
2026-05-05 13:58 49.44509 11.50948 4750 ft 260 kts 314°
2026-05-05 13:58 49.45521 11.48660 4540 ft 259 kts 296°
2026-05-05 13:58 49.46117 11.46055 4309 ft 258 kts 283°
2026-05-05 13:59 49.46629 11.40609 3878 ft 256 kts 278°
2026-05-05 13:59 49.46890 11.37905 3752 ft 255 kts 278°
2026-05-05 14:00 49.47430 11.32495 3772 ft 254 kts 278°
2026-05-05 14:00 49.47604 11.30711 3802 ft 258 kts 278°
2026-05-05 14:00 49.47960 11.27151 3317 ft 237 kts 279°
2026-05-05 14:00 49.48199 11.24733 3025 ft 224 kts 279°
2026-05-05 14:01 49.48423 11.22468 2730 ft 204 kts 279°
2026-05-05 14:01 49.48627 11.20396 2472 ft 189 kts 278°
2026-05-05 14:01 49.48818 11.18459 2215 ft 179 kts 278°
2026-05-05 14:01 49.48995 11.16646 1988 ft 161 kts 279°
2026-05-05 14:02 49.49149 11.15083 1790 ft 136 kts 279°
2026-05-05 14:02 49.49288 11.13695 1615 ft 126 kts 279°
2026-05-05 14:02 49.49415 11.12395 1510 ft 126 kts 279°
2026-05-05 14:02 49.49532 11.11078 1300 ft 123 kts 279°
2026-05-05 14:03 49.49663 11.09772 1102 ft 123 kts 281°
2026-05-05 14:03 49.49790 11.08539 1035 ft 108 kts 281°
2026-05-05 14:03 49.49896 11.07532 1022 ft 83 kts 279°
2026-05-05 14:03 49.49957 11.06931 1021 ft 44 kts 278°
2026-05-05 14:04 49.49991 11.06546 1020 ft 24 kts 256°
2026-05-05 14:04 49.49896 11.06488 1018 ft 10 kts 164°
2026-05-05 14:04 49.49883 11.06495 1018 ft 2 kts 159°
2026-05-05 14:04 49.49868 11.06504 1018 ft 3 kts 159°
2026-05-05 14:05 49.49837 11.06522 1017 ft 8 kts 158°
2026-05-05 14:05 49.49798 11.06586 1017 ft 8 kts 101°
2026-05-05 14:05 49.49789 11.06670 1016 ft 9 kts 98°
2026-05-05 14:05 49.49771 11.06850 1016 ft 19 kts 98°
2026-05-05 14:06 49.49752 11.07043 1018 ft 17 kts 98°
2026-05-05 14:06 49.49732 11.07204 1019 ft 12 kts 121°
2026-05-05 14:06 49.49674 11.07218 1020 ft 7 kts 221°
2026-05-05 14:06 49.49665 11.07168 1021 ft 5 kts 275°
2026-05-05 14:07 49.49673 11.07089 1020 ft 6 kts 263°
2026-05-05 14:07 49.49652 11.07082 1021 ft 4 kts 173°
2026-05-05 14:07 49.49634 11.07080 1021 ft 1 kts 190°
2026-05-05 14:07 49.49633 11.07079 1021 ft 0 kts 189°